Location: Jackson
(42.2460°N, 84.4010°W)
Time: 18:09:07
(UTC-05:00)

BlueWalker 3 - Pass Details

Date: 21 January 2026
Orbit: 450 x 461 km, 53.2° (Epoch: 14 February)

Event Time Altitude Azimuth Distance (km) Brightness Sun altitude
Rises 20:11:54 0° 257° (WSW) 2,449 6.6 -28.2°
Reaches altitude 10° 20:14:11 10° 267° (W) 1,579 5.4 -28.7°
Enters shadow 20:15:43 21° 284° (WNW) 1,070 4.2 -28.9°
